Rhodes, Greece

12:04 PM EET on January 22, 2017 (GMT +0200)
Diagoras

Weather History for LGRP - December, 2013

Change the Weather History Date:

Saturday, December 7, 2013

  Actual Average Record
Temperature  
Mean Temperature 57 °F -  
Max Temperature 61 °F 61 °F 69 °F (2008)
Min Temperature 53 °F 50 °F 50 °F (2001)
Degree Days  
Heating Degree Days 8    
Growing Degree Days 7 (Base 50)    
Moisture  
Dew Point 50 °F    
Average Humidity 78    
Maximum Humidity 94    
Minimum Humidity 39    
Precipitation  
Precipitation 0.16 in 0.19 in - ()
Sea Level Pressure  
Sea Level Pressure 29.94 in    
Wind  
Wind Speed 8 mph ()    
Max Wind Speed 20 mph    
Max Gust Speed -    
Visibility 6.1 miles    
Events Rain    
Averages and records for this station are not official NWS values.
T = Trace of Precipitation, MM = Missing Value Source: Averaged Metar Reports

Daily Weather History Graph

Daily Weather History Graph

Search for Another Location

Airport or City:

Trip Planner

Search our weather history database for the weather conditions in past years. The results will help you decide how hot, cold, wet, or windy it might be!

Date:

Astronomy

Dec. 07, 2013 Rise Set
Actual Time 7:05 AM EET 4:52 PM EET
Civil Twilight 6:37 AM EET 5:20 PM EET
Nautical Twilight 6:05 AM EET 5:52 PM EET
Astronomical Twilight 5:34 AM EET 6:24 PM EET
Moon 10:43 AM EET (12/7) 10:05 PM EET (12/7)
Length of Visible Light 10h 43m
Length of Day
9h 46m
Waxing Crescent, 26% of the Moon is Illuminated
Dec 7
Waxing Crescent
Dec 9
First Quarter
Dec 17
Full
Dec 25
Last Quarter
Jan 1
New

Hourly Weather History & Observations

Time (EET) Temp. Dew Point Humidity Pressure Visibility Wind Dir Wind Speed Gust Speed Precip Events Conditions
12:20 AM 55.4 °F 46.4 °F 72% 29.98 in 6.2 mi Variable 2.3 mph - N/A   Scattered Clouds
12:50 AM 55.4 °F 46.4 °F 72% 29.95 in 6.2 mi Variable 3.5 mph - N/A   Scattered Clouds
1:20 AM 55.4 °F 46.4 °F 72% 29.95 in 6.2 mi Variable 3.5 mph - N/A   Scattered Clouds
1:50 AM 55.4 °F 46.4 °F 72% 29.95 in 6.2 mi South 4.6 mph - N/A   Scattered Clouds
2:00 AM 56 °F 46 °F 59% 29.95 in 6 mi South 4.6 mph - -   Partly Cloudy
2:20 AM 55.4 °F 46.4 °F 72% 29.95 in 6.2 mi South 4.6 mph - N/A   Scattered Clouds
2:50 AM 53.6 °F 46.4 °F 77% 29.92 in 6.2 mi SSE 4.6 mph - N/A   Scattered Clouds
3:20 AM 53.6 °F 46.4 °F 77% 29.92 in 6.2 mi SSE 4.6 mph - N/A   Scattered Clouds
3:50 AM 53.6 °F 46.4 °F 77% 29.92 in 6.2 mi South 4.6 mph - N/A   Scattered Clouds
4:20 AM 53.6 °F 46.4 °F 77% 29.92 in 6.2 mi South 4.6 mph - N/A   Scattered Clouds
4:50 AM 55.4 °F 50.0 °F 82% 29.89 in 6.2 mi South 4.6 mph - N/A   Scattered Clouds
5:20 AM 55.4 °F 50.0 °F 82% 29.89 in 6.2 mi SSE 4.6 mph - N/A Rain Light Rain
5:50 AM 55.4 °F 50.0 °F 82% 29.92 in 6.2 mi Variable 3.5 mph - N/A Rain Light Rain
6:20 AM 53.6 °F 51.8 °F 94% 29.92 in 5.0 mi SW 9.2 mph - N/A Rain Rain
6:50 AM 55.4 °F 53.6 °F 94% 29.92 in 5.6 mi Variable 3.5 mph - N/A Rain Light Rain
7:20 AM 55.4 °F 53.6 °F 94% 29.92 in 6.2 mi Variable 1.2 mph - N/A   Mostly Cloudy
7:50 AM 55.4 °F 51.8 °F 88% 29.92 in 6.2 mi Variable 3.5 mph - N/A   Mostly Cloudy
8:00 AM 55 °F 52 °F 86% 29.92 in 6 mi 3.5 mph - -  
8:20 AM 55.4 °F 51.8 °F 88% 29.92 in 6.2 mi Variable 3.5 mph - N/A   Scattered Clouds
8:50 AM 57.2 °F 51.8 °F 82% 29.92 in 6.2 mi Variable 3.5 mph - N/A   Scattered Clouds
9:20 AM 57.2 °F 51.8 °F 82% 29.92 in 6.2 mi SSW 8.1 mph - N/A   Scattered Clouds
9:50 AM 57.2 °F 50.0 °F 77% 29.92 in 6.2 mi SSW 5.8 mph - N/A   Drizzle
10:20 AM 57.2 °F 50.0 °F 77% 29.92 in 5.6 mi WSW 11.5 mph - N/A Rain Rain
10:50 AM 59.0 °F 51.8 °F 77% 29.92 in 6.2 mi SW 8.1 mph - N/A   Scattered Clouds
11:20 AM 59.0 °F 51.8 °F 77% 29.92 in 6.2 mi SW 11.5 mph - N/A   Scattered Clouds
11:50 AM 59.0 °F 51.8 °F 77% 29.92 in 6.2 mi SW 11.5 mph - N/A   Scattered Clouds
12:20 PM 59.0 °F 51.8 °F 77% 29.89 in 6.2 mi West 15.0 mph - N/A   Scattered Clouds
12:50 PM 59.0 °F 51.8 °F 77% 29.89 in 6.2 mi WSW 15.0 mph - N/A   Scattered Clouds
1:20 PM 59.0 °F 51.8 °F 77% 29.89 in 6.2 mi WSW 12.7 mph - N/A   Scattered Clouds
1:50 PM 59.0 °F 51.8 °F 77% 29.89 in 6.2 mi WSW 16.1 mph - N/A   Scattered Clouds
2:00 PM 60 °F 52 °F 66% 29.91 in 6 mi WSW 16.1 mph - -   Partly Cloudy
2:20 PM 59.0 °F 51.8 °F 77% 29.89 in 6.2 mi West 15.0 mph - N/A   Scattered Clouds
2:50 PM 59.0 °F 51.8 °F 77% 29.89 in 6.2 mi WSW 18.4 mph - N/A   Scattered Clouds
3:20 PM 59.0 °F 51.8 °F 77% 29.89 in 6.2 mi WSW 16.1 mph - N/A   Scattered Clouds
3:50 PM 60.8 °F 50.0 °F 68% 29.89 in 6.2 mi West 16.1 mph - N/A   Scattered Clouds
4:20 PM 60.8 °F 35.6 °F 39% 29.92 in 6.2 mi West 16.1 mph - N/A   Scattered Clouds
4:50 PM 59.0 °F 51.8 °F 77% 29.92 in 6.2 mi West 16.1 mph - N/A   Mostly Cloudy
5:20 PM 57.2 °F 51.8 °F 82% 29.92 in 6.2 mi NW 13.8 mph - N/A   Mostly Cloudy
5:50 PM 59.0 °F 51.8 °F 77% 29.92 in 6.2 mi NW 17.3 mph - N/A   Mostly Cloudy
6:20 PM 57.2 °F 53.6 °F 88% 29.92 in 6.2 mi WNW 15.0 mph - N/A   Mostly Cloudy
6:50 PM 57.2 °F 51.8 °F 82% 29.98 in 6.2 mi WNW 15.0 mph - N/A   Mostly Cloudy
7:20 PM 57.2 °F 55.4 °F 94% 29.98 in 6.2 mi WNW 16.1 mph - N/A   Scattered Clouds
7:50 PM 57.2 °F 55.4 °F 94% 29.98 in 6.2 mi WNW 19.6 mph - N/A   Partly Cloudy
8:00 PM 58 °F 55 °F 88% 30.00 in 6 mi WNW 19.6 mph - -   Scattered Clouds
8:20 PM 57.2 °F 53.6 °F 88% 30.01 in 6.2 mi WNW 18.4 mph - N/A   Partly Cloudy
8:50 PM 57.2 °F 55.4 °F 94% 30.01 in 6.2 mi WNW 16.1 mph - N/A   Partly Cloudy
9:20 PM 57.2 °F 53.6 °F 88% 30.01 in 6.2 mi WNW 13.8 mph - N/A   Partly Cloudy
9:50 PM 57.2 °F 55.4 °F 94% 30.04 in 6.2 mi WNW 16.1 mph - N/A   Partly Cloudy
10:20 PM 57.2 °F 55.4 °F 94% 30.04 in 6.2 mi WNW 16.1 mph - N/A   Partly Cloudy
10:50 PM 57.2 °F 37.4 °F 48% 30.06 in 6.2 mi WNW 16.1 mph - N/A   Partly Cloudy
11:20 PM 57.2 °F 37.4 °F 48% 30.06 in 6.2 mi WNW 16.1 mph - N/A   Partly Cloudy
11:50 PM 55.4 °F 39.2 °F 54% 30.09 in 6.2 mi NW 17.3 mph - N/A   Partly Cloudy